Regional Weather Roundup
Issued by NWS

Home | Current Version | Previous Version | Graphics & Text | Print | Product List | Glossary On
Versions: 1 2 3 4 5 6 7 8 9 10 11 12 13 14 15 16 17 18 19 20 21 22 23 24 25 26 27 28 29 30 31 32 33 34 35 36 37 38 39 40 41 42 43 44 45 46 47 48 49 50
000
ASUS45 KABQ 300910
RWRNM
NEW MEXICO REGIONAL WEATHER ROUNDUP
NATIONAL WEATHER SERVICE ALBUQUERQUE NM
300 AM MDT MON MAY 30 2016

NOTE: "FAIR" MEANS FEW OR NO CLOUDS BELOW 12,000 FEET AGL WITH NO
       SIGNIFICANT WEATHER OR OBSTRUCTIONS TO VISION.

      THIS PRODUCT IS RELEASED AS TWO VERSIONS.  ONE VERSION NEAR
      THE TOP OF THE HOUR CONTAINING PRELIMINARY DATA FROM ALBUQUERQUE
      AND OTHER STATIONS.  A FINAL VERSION WITH ADDITIONAL DATA IS
      ISSUED ABOUT 10 MINUTES AFTER THE HOUR.

NMZ501-503-504-510>518-301000-
NORTHWEST PLATEAU/NORTHCENTRAL MOUNTAINS

CITY           SKY/WX    TMP DP  RH WIND       PRES   REMARKS
FARMINGTON     FAIR      53  20  27 NE6       30.07R
LOS ALAMOS     FAIR      54  41  63 S12G20    30.22S
SANTA FE       FAIR      55  44  66 SE20G26   30.16R
TAOS           FAIR      48  25  40 CALM      30.19F
ANGEL FIRE     FAIR      38  36  90 CALM      30.29S

$$
NMZ402-403-502-505>509-301000-
WESTCENTRAL MOUNTAINS/SOUTHWEST MOUNTAINS

CITY           SKY/WX    TMP DP  RH WIND       PRES   REMARKS
GALLUP         FAIR      42  19  39 NE5       30.15F
GRANTS         FAIR      37  12  36 N6        30.17F WCI  32
SILVER CITY      N/A     59  25  27 N9        30.13F

$$
NMZ407-409-411-412-301000-
SOUTHERN DESERTS

CITY           SKY/WX    TMP DP  RH WIND       PRES   REMARKS
LORDSBURG      FAIR      63  28  27 CALM      30.04F
DEMING         FAIR      65  34  31 S7        30.06R
LAS CRUCES     FAIR      64  34  32 W6        30.07S
HOLLOMAN AFB   FAIR      71  35  26 S12       30.02R
ALAMOGORDO     FAIR      72  34  25 S8        30.03S
T OR C         FAIR      63  28  26 W9        30.06R

$$
NMZ519>523-301000-
CENTRAL VALLEYS/CENTRAL HIGHLANDS

CITY           SKY/WX    TMP DP  RH WIND       PRES   REMARKS
ALBUQUERQUE    FAIR      62  31  31 E10       30.09R
DOUBLE EAGLE   FAIR      53  20  26 N5        30.12R
MORIARTY ARPT  FAIR      49  44  81 CALM      30.20S
CLINES CORNERS CLOUDY    49  46  90 SE12      30.21S
BELEN          FAIR      55  13  18 SE5       30.07S
SOCORRO        FAIR      57  26  30 CALM      30.05S

$$
NMZ524>526-539-540-301000-
SOUTHCENTRAL MOUNTAINS

CITY           SKY/WX    TMP DP  RH WIND       PRES   REMARKS
RUIDOSO          N/A     50  48  93 S5        30.24F FOG

$$
NMZ527>531-301000-
NORTHEAST HIGHLANDS/NORTHEAST PLAINS

CITY           SKY/WX    TMP DP  RH WIND       PRES   REMARKS
LAS VEGAS      CLOUDY    49  44  83 SW10      30.23F
RATON          CLOUDY    48  44  86 E6        30.19F
CLAYTON        FAIR      52  48  86 W17       30.11F

$$
NMZ532>537-301000-
EASTCENTRAL PLAINS

CITY           SKY/WX    TMP DP  RH WIND       PRES   REMARKS
TUCUMCARI      FAIR      52  50  93 NW6       30.13S
CANNON AFB     FAIR      49  49 100 N5        30.13R
CLOVIS AIRPORT FAIR      48  45  87 W6        30.12S

$$
NMZ028-029-538-301000-
SOUTHEAST PLAINS

CITY           SKY/WX    TMP DP  RH WIND       PRES   REMARKS
ROSWELL        CLOUDY    62  51  67 W3        30.10F
ARTESIA        CLOUDY    61  57  88 S8        30.11S
CARLSBAD       CLOUDY    61  54  77 CALM      30.08R
HOBBS          FAIR      55  55 100 E7        30.08F


$$




USA.gov is the U.S. government's official web portal to all federal, state and local government web resources and services.